User: anonymous   Login
Location: Unspecified
(42.1900°N, 71.3291°W)
Time: 21:31:03
(UTC-04:00)
Language:

Resurs 1-4 Rocket - Orbit

View from above orbital plane
View from above orbital plane
View from above satellite
View from above satellite

Ground track
Ground track

The orbit data is extracted from the following two-line orbital elements,

1 25400U 98043G   16235.88261537 -.00000001 +00000-0 +17509-4 0  9990
2 25400 098.4440 188.3288 0011069 088.6824 271.5624 14.25388157942357
Epoch (UTC): 22 August 2016 21:10:57
Eccentricity: 0.0011069
inclination: 98.4440°
perigee height: 799 km
apogee height: 815 km
right ascension of ascending node: 188.3288°
argument of perigee: 88.6824°
revolutions per day: 14.25388157
mean anomaly at epoch: 271.5624°
orbit number at epoch: 94235

The dashed part of the orbit path shows where the satellite is in the earth's shadow,  

DLR